Cloud_Cover
100 100 100 100 100 100 100 100 100 100 100 100 99 40 58 62 5 27 15 72 87 100 100 25 36 5 30 10 80 41 4 84 85 93 100 91 78 100 100 100 100 100 60 90 100 100 89 21 5 4 2 5 5 5
100 100 100 100 100 100 100 100 100 100 100 72 100 100 100 100 57 5 5 5 13 88 100 9 5 5 5 9 98 100 43 6 6 89 100 100 100 100 98 100 100 100 100 98 31 18 75 48 80 28 5 5 5 5
100 100 100 100 100 100 100 100 100 100 100 100 100 100 100 100 45 7 10 67 75 100 100 37 6 45 29 5 18 99 100 6 8 99 93 72 100 100 100 100 100 58 96 94 68 66 12 88 73 17 5 5 20 97
100 100 100 100 100 100 100 100 100 100 100 100 88 100 100 60 89 67 89 47 100 99 100 64 5 5 5 3 5 5 72 66 76 95 92 90 75 95 62 94 100 66 84 84 29 98 25 7 7 62 71 15 29 35
100 100 100 100 100 100 100 100 100 100 100 93 100 100 100 100 85 99 96 47 100 100 97 90 4 5 5 5 5 5 66 76 96 98 99 60 40 32 68 96 98 100 100 44 6 18 5 5 62 100 99 65 53 42
100 100 100 100 100 100 100 100 100 100 100 100 100 100 97 85 100 100 95 80 97 100 99 76 5 2 5 5 5 9 71 46 99 86 38 6 5 44 75 80 96 98 100 85 21 71 17 5 5 49 66 100 100 85
100 100 100 100 100 100 100 100 100 100 100 100 100 100 98 100 96 100 31 100 100 99 80 67 7 1 1 6 57 52 72 73 42 96 72 44 20 100 99 81 99 100 98 100 100 59 22 20 5 5 54 87 93 82
100 100 100 100 100 100 100 100 100 100 100 100 100 100 100 100 100 99 100 100 100 100 93 99 47 5 6 79 78 70 96 100 100 86 84 75 68 22 53 28 100 100 100 100 100 100 100 100 64 52 17 5 6 5
100 100 100 100 100 100 100 100 100 100 100 100 100 100 100 100 97 79 73 100 100 77 48 82 87 53 10 46 99 100 100 99 94 99 87 100 83 59 89 100 100 100 100 89 100 100 100 100 100 100 100 100 100 100
100 100 100 100 100 100 100 100 100 100 100 100 100 100 100 100 100 99 100 100 100 100 99 99 58 72 65 82 59 91 83 78 84 100 100 95 37 29 26 92 100 100 100 97 100 100 100 100 100 100 100 100 100 100
100 100 100 100 100 100 100 100 100 100 100 100 100 95 100 100 100 100 88 97 100 93 55 79 80 96 72 96 87 94 79 90 98 94 100 78 98 100 100 85 100 66 100 100 100 100 100 100 100 100 100 100 100 100
100 100 100 100 100 100 100 100 100 100 100 100 100 100 100 100 100 98 96 96 80 53 6 23 90 100 100 100 100 96 100 100 100 100 99 100 100 100 100 77 100 84 100 100 100 100 100 100 100 100 100 100 100 100
100 100 100 100 100 100 100 100 100 100 100 100 100 100 100 100 100 100 95 84 87 14 6 100 100 86 100 100 100 100 100 100 100 100 98 100 100 100 100 100 100 97 100 100 100 100 100 100 100 100 100 100 100 100
100 100 100 100 100 100 100 100 100 100 100 100 100 100 100 100 100 96 25 5 18 95 100 100 100 85 91 100 100 100 100 100 100 80 100 100 100 100 100 100 100 100 100 100 100 100 100 100 100 100 100 100 100 100
100 100 100 100 100 100 100 100 100 100 100 100 100 100 100 100 73 84 41 46 56 100 100 79 82 100 100 100 100 100 98 100 99 87 100 100 100 100 100 100 100 100 100 100 100 100 100 100 100 100 100 100 100 100
100 100 100 100 100 100 100 100 100 100 100 100 100 100 100 100 86 81 84 100 64 99 99 100 100 100 100 100 100 100 100 100 99 100 100 100 100 100 100 100 100 100 100 100 100 100 100 100 100 100 100 100 100 100
100 100 100 100 100 100 100 100 100 100 100 100 100 100 100 99 96 59 7 21 40 90 83 98 100 93 100 100 92 100 100 100 100 100 100 100 98 100 100 100 100 100 100 100 100 100 100 100 98 90 96 98 91 100
100 100 100 100 100 100 100 100 100 100 100 100 100 100 100 100 95 100 100 74 94 100 100 86 100 96 100 84 100 100 100 100 100 100 100 100 100 100 100 100 100 100 100 100 100 100 100 100 100 100 100 100 100 100
100 100 100 100 100 100 100 100 100 100 100 100 100 100 100 100 89 28 97 100 100 100 99 100 100 100 73 30 89 95 100 100 100 100 100 100 100 100 100 100 100 100 100 100 100 100 100 100 100 100 100 100 100 100
100 100 100 100 100 100 100 100 100 100 100 100 100 100 100 91 58 97 100 100 100 100 100 100 100 37 6 23 53 76 89 81 100 100 100 100 100 100 100 100 100 100 100 100 100 100 100 100 100 100 100 100 100 100
100 100 100 100 100 100 100 100 100 100 100 100 100 98 75 88 85 66 23 77 100 100 71 18 33 100 99 100 100 98 100 100 100 100 100 100 100 100 100 100 100 84 100 100 100 100 100 100 90 22 43 5 6 54
100 100 100 100 100 100 100 100 100 100 100 100 100 96 92 95 84 92 90 94 84 45 8 6 55 84 63 100 100 100 100 100 100 100 100 100 100 100 100 100 100 100 100 100 100 100 99 100 58 22 24 5 28 22
100 100 100 100 100 96 100 100 100 100 88 91 97 96 96 100 91 82 89 67 7 14 18 31 92 97 100 100 100 96 100 100 100 100 100 100 100 100 100 100 100 100 100 100 100 100 95 100 99 36 25 37 29 50
100 100 100 100 100 100 100 100 100 100 98 99 98 96 91 81 92 99 89 6 82 95 95 100 100 100 100 100 70 9 31 57 98 100 100 100 100 100 100 100 100 100 100 100 100 100 100 100 100 83 49 80 44 89
100 100 100 100 100 100 100 100 100 100 100 99 69 79 51 91 77 98 88 41 100 100 71 84 100 100 100 100 54 5 6 5 5 12 71 58 70 98 81 76 92 98 100 100 82 78 56 57 60 41 18 13 45 28
99 100 99 100 88 80 71 96 99 61 54 61 46 68 59 76 76 86 94 99 100 95 98 100 100 100 100 40 5 5 5 5 5 23 60 67 88 100 100 100 98 100 99 92 98 90 77 97 89 55 11 14 16 5
100 95 62 31 42 5 11 57 45 38 70 94 75 84 100 100 100 100 100 100 100 100 100 100 100 100 100 54 5 5 28 53 9 80 100 94 98 100 100 100 100 100 100 100 100 100 100 100 100 100 95 88 66 54
100 89 89 99 89 67 61 72 89 99 100 76 88 100 100 100 100 100 100 100 100 100 100 100 100 100 100 100 16 5 7 54 57 58 100 100 100 100 100 100 100 100 100 100 100 100 100 100 100 100 100 100 100 100
54 99 100 88 73 98 98 99 92 97 100 100 100 100 100 100 100 100 100 100 100 100 100 97 88 45 45 7 45 14 45 44 5 5 47 94 100 100 100 100 100 100 100 100 100 100 100 100 100 100 100 100 100 100
79 41 39 78 95 88 71 100 100 100 100 100 100 100 100 100 100 100 100 100 100 100 100 100 93 62 50 20 12 5 7 6 5 5 5 4 6 8 51 83 100 100 100 100 100 100 100 100 100 100 100 100 100 100
94 100 100 99 100 100 100 100 100 100 100 100 100 100 100 100 100 100 100 100 100 100 45 21 5 15 6 17 50 66 12 29 50 11 64 36 12 33 19 12 28 60 73 99 100 100 100 91 100 100 100 99 98 98
100 100 100 100 100 100 100 100 100 100 100 100 100 100 100 100 100 100 100 100 31 6 5 65 5 5 5 19 7 29 84 51 61 8 52 49 44 13 24 61 77 63 64 63 62 60 67 83 97 97 100 92 85 87
100 100 100 100 100 100 100 100 100 100 100 100 100 100 100 100 97 85 87 51 8 5 5 8 5 17 5 7 47 48 82 88 99 97 98 92 96 60 91 82 61 64 61 66 59 29 45 64 90 98 100 91 99 100